Location: Les Jeannots
(43.2262°N, 5.5774°E)
Time: 01:22:10
(UTC+00:00)

Cosmos 2084 - Pass Details

Date: 05 July 2020
Orbit: 571 x 612 km, 62.8° (Epoch: 11 August)

Event Time Altitude Azimuth Distance (km) Brightness Sun altitude
Rises 21:39:54 0° 323° (NW) 2,882 8.6 -18.3°
Reaches altitude 10° 21:42:11 10° 324° (NW) 1,973 7.4 -18.5°
Maximum altitude 21:46:40 82° 53° (NE) 620 3.5 -18.9°
Enters shadow 21:48:03 44° 135° (SE) 849 3.8 -19.0°
